Regional Weather Roundup
Issued by NWS State College, PA

Home | Current Version | Previous Version | Text Only | Print | Product List | Glossary On
Versions: 1 2 3 4 5 6 7 8 9 10 11 12 13 14 15 16 17 18 19 20 21 22 23 24 25 26 27 28 29 30 31 32 33 34 35 36 37 38 39 40 41 42 43 44 45 46 47 48 49 50
000
ASUS41 KCTP 112303
RWRCTP

REGIONAL WEATHER ROUNDUP
NATIONAL WEATHER SERVICE STATE COLLEGE PA
600 PM EST MON DEC 11 2017

Note: "fair" indicates few or no clouds below 12,000 feet with no
significant weather and/or obstructions to visibility.

* = STATION THAT DOES NOT REPORT PRECIPITATION /E.G. RAIN...SNOW...ETC/
    THUNDER OR FOG.

PAZ002>004-007>009-013>016-020>023-029>032-120000-
WESTERN PENNSYLVANIA

CITY           SKY/WX    TMP DP  RH WIND       PRES   REMARKS
ERIE           CLOUDY    29  23  78 S5        29.85F
MEADVILLE      CLOUDY    28  23  81 CALM      29.82F
FRANKLIN*      CLOUDY    28  21  75 S3        29.82F
NEW CASTLE     MIX PCPN  32  23  69 CALM      29.85F
BEAVER COUNTY  CLOUDY    32  21  64 CALM      29.84F
BUTLER*        LGT RAIN  33  21  61 CALM      29.84F
PITTSBURGH INT CLOUDY    38  21  50 CALM      29.84F
PITTSBURGH     CLOUDY    36  18  48 CALM      29.83F
INDIANA*       CLOUDY    34  23  64 SE3       29.88S
LATROBE        CLOUDY    36  23  60 CALM      29.86F
WASHINGTON CO* MOCLDY    35  20  54 CALM      29.85F
$$

PAZ004>006-010>012-017>019-024>028-033>037-041-042-045-046-049>053-120000-
CENTRAL PENNSYLVANIA

CITY           SKY/WX    TMP DP  RH WIND       PRES   REMARKS
BRADFORD       CLOUDY    26  21  81 SE5       29.79F
DUBOIS         CLOUDY    30  19  63 CALM      29.81F
CLEARFIELD     CLOUDY    32  20  61 CALM      29.85F
JOHNSTOWN      CLOUDY    33  22  63 SW3       29.81S
ALTOONA        CLOUDY    36  22  56 CALM      29.86F
STATE COLLEGE  CLOUDY    34  19  55 CALM      29.88F
WILLIAMSPORT   CLOUDY    35  22  58 E6        29.93S
SELINSGROVE    CLOUDY    35  23  61 CALM      29.94F
FT INDIANTOWN  CLOUDY    37  23  55 SE7       29.94F
CAPITAL CITY   CLOUDY    41  21  44 SE6       29.94F
HARRISBURG     CLOUDY    39  28  64 SE5       29.94F
YORK           CLOUDY    39  26  59 CALM      29.94F
$$

PAZ038>040-043-044-047-048-054-055-060>062-067>071-120000-
EASTERN PENNSYLVANIA

CITY           SKY/WX    TMP DP  RH WIND       PRES   REMARKS
SCRANTON       CLOUDY    32  21  64 CALM      29.93S
MOUNT POCONO   CLOUDY    27  18  69 CALM      29.88F
ALLENTOWN      MOCLDY    37  20  50 E5        29.97F
QUAKERTOWN*    MOCLDY    32  23  69 CALM      29.99F
READING        MOCLDY    37  25  61 SE6       29.96F
LANCASTER      CLOUDY    36  28  73 SE7       29.95F
COATESVILLE    PTCLDY    36  23  60 CALM      29.98F
POTTSTOWN      PTCLDY    31  22  69 CALM      30.00F
BLUE BELL      CLEAR     30  27  86 CALM      30.01F
DOYLESTOWN     PTCLDY    31  22  69 SE3       29.98F
WILLOW GROVE   NOT AVBL
NORTH PHILA    CLEAR     37  23  56 CALM      30.03S
PHILADELPHIA   PTCLDY    37  22  54 SE5       30.02S
$$



USA.gov is the U.S. government's official web portal to all federal, state and local government web resources and services.